• In Austria
  • List of Countries
  • For 7 days
  • Water Temperature
  • Satellite Maps
  • Weather Map
  • News
  • Weather Widgets
  • user-avatar
    Login

    Hourly Weather Linz

    Today, 25 February, Sunday

    Time Temperature Precipitation Wind Pressure Humidity
    00:00 -11°C° 0 mm 4 mps 738 mmHg 78%
    01:00 -10°C° 0 mm 3 mps 738 mmHg 79%
    02:00 -12°C° 0 mm 3 mps 738 mmHg 79%
    03:00 -12°C° 0 mm 3 mps 738 mmHg 79%
    04:00 -13°C° 0 mm 3 mps 738 mmHg 79%
    05:00 -13°C° 0 mm 3 mps 738 mmHg 79%
    06:00 -13°C° 0 mm 3 mps 738 mmHg 79%
    07:00 -14°C° 0 mm 3 mps 738 mmHg 80%
    08:00 -13°C° 0 mm 3 mps 738 mmHg 74%
    09:00 -10°C° 0 mm 3 mps 738 mmHg 69%
    10:00 -9°C° 0 mm 3 mps 738 mmHg 63%
    11:00 -8°C° 0 mm 3 mps 738 mmHg 61%
    12:00 -8°C° 0 mm 4 mps 737 mmHg 58%
    13:00 -7°C° 0 mm 4 mps 737 mmHg 55%
    14:00 -8°C° 0 mm 4 mps 737 mmHg 56%
    15:00 -8°C° 0 mm 4 mps 736 mmHg 58%
    16:00 -8°C° 0 mm 4 mps 736 mmHg 59%
    17:00 -8°C° 0 mm 3 mps 736 mmHg 64%
    18:00 -9°C° 0 mm 3 mps 736 mmHg 70%
    19:00 -9°C° 0 mm 2 mps 737 mmHg 75%
    20:00 -10°C° 0 mm 2 mps 737 mmHg 76%
    21:00 -10°C° 0 mm 2 mps 737 mmHg 77%
    22:00 -12°C° 0 mm 2 mps 737 mmHg 78%
    23:00 -12°C° 0 mm 2 mps 737 mmHg 78%

    Tomorrow, 26 February, Monday

    Time Temperature Precipitation Wind Pressure Humidity
    00:00 -13°C° 0 mm 2 mps 737 mmHg 78%
    01:00 -13°C° 0 mm 2 mps 737 mmHg 79%
    02:00 -13°C° 0 mm 2 mps 737 mmHg 79%
    03:00 -13°C° 0 mm 2 mps 737 mmHg 80%
    04:00 -14°C° 0 mm 2 mps 737 mmHg 80%
    05:00 -14°C° 0 mm 2 mps 737 mmHg 80%
    06:00 -14°C° 0 mm 2 mps 737 mmHg 81%
    07:00 -14°C° 0 mm 2 mps 737 mmHg 81%
    08:00 -13°C° 0 mm 2 mps 737 mmHg 76%
    09:00 -12°C° 0 mm 2 mps 737 mmHg 71%
    10:00 -12°C° 0 mm 3 mps 736 mmHg 66%
    11:00 -10°C° 0 mm 3 mps 736 mmHg 64%
    12:00 -9°C° 0 mm 3 mps 735 mmHg 61%
    13:00 -8°C° 0 mm 3 mps 735 mmHg 59%
    14:00 -8°C° 0 mm 3 mps 735 mmHg 60%
    15:00 -8°C° 0 mm 3 mps 735 mmHg 61%
    16:00 -8°C° 0 mm 3 mps 734 mmHg 62%
    17:00 -9°C° 0 mm 3 mps 735 mmHg 66%
    18:00 -9°C° 0 mm 2 mps 735 mmHg 70%
    19:00 -9°C° 0 mm 2 mps 735 mmHg 75%
    20:00 -9°C° 0 mm 2 mps 735 mmHg 76%
    21:00 -10°C° 0 mm 2 mps 735 mmHg 77%
    22:00 -10°C° 0 mm 2 mps 735 mmHg 78%
    23:00 -10°C° 0 mm 2 mps 735 mmHg 78%

    Day after tomorrow, 27 February, Tuesday

    Time Temperature Precipitation Wind Pressure Humidity
    00:00 -12°C° 0 mm 2 mps 735 mmHg 79%
    01:00 -12°C° 0 mm 2 mps 734 mmHg 80%
    02:00 -12°C° 0 mm 2 mps 734 mmHg 80%
    03:00 -13°C° 0 mm 2 mps 734 mmHg 80%
    04:00 -13°C° 0 mm 2 mps 734 mmHg 81%
    05:00 -13°C° 0 mm 2 mps 734 mmHg 81%
    06:00 -13°C° 0 mm 2 mps 734 mmHg 81%
    07:00 -12°C° 0 mm 1 mps 734 mmHg 82%
    08:00 -13°C° 0 mm 2 mps 733 mmHg 76%
    09:00 -12°C° 0 mm 2 mps 733 mmHg 70%
    10:00 -10°C° 0 mm 2 mps 733 mmHg 65%
    11:00 -9°C° 0 mm 2 mps 733 mmHg 62%
    12:00 -8°C° 0 mm 2 mps 732 mmHg 59%
    13:00 -7°C° 0 mm 2 mps 732 mmHg 56%
    14:00 -7°C° 0 mm 2 mps 732 mmHg 57%
    15:00 -7°C° 0 mm 2 mps 732 mmHg 58%
    16:00 -7°C° 0 mm 2 mps 732 mmHg 59%
    17:00 -8°C° 0 mm 2 mps 732 mmHg 64%
    18:00 -9°C° 0 mm 2 mps 733 mmHg 69%
    19:00 -9°C° 0 mm 1 mps 733 mmHg 74%
    20:00 -9°C° 0 mm 1 mps 733 mmHg 76%
    21:00 -10°C° 0 mm 1 mps 734 mmHg 77%
    22:00 -10°C° 0 mm 1 mps 734 mmHg 79%
    23:00 -11°C° 0 mm 1 mps 734 mmHg 80%

    28 February, Wednesday

    Time Temperature Precipitation Wind Pressure Humidity
    00:00 -11°C° 0 mm 1 mps 734 mmHg 81%
    01:00 -11°C° 0 mm 1 mps 734 mmHg 81%
    02:00 -11°C° 0 mm 1 mps 734 mmHg 82%
    03:00 -12°C° 0 mm 1 mps 734 mmHg 82%
    04:00 -12°C° 0 mm 1 mps 734 mmHg 82%
    05:00 -12°C° 0 mm 1 mps 735 mmHg 82%
    06:00 -12°C° 0 mm 1 mps 735 mmHg 82%
    07:00 -12°C° 0 mm 1 mps 735 mmHg 83%
    08:00 -11°C° 0 mm 1 mps 735 mmHg 76%
    09:00 -10°C° 0 mm 2 mps 735 mmHg 70%
    10:00 -9°C° 0 mm 2 mps 735 mmHg 64%
    11:00 -8°C° 0 mm 2 mps 735 mmHg 61%
    12:00 -7°C° 0 mm 2 mps 735 mmHg 58%
    13:00 -5°C° 0 mm 2 mps 735 mmHg 55%
    14:00 -5°C° 0 mm 2 mps 735 mmHg 56%
    15:00 -5°C° 0 mm 2 mps 735 mmHg 58%
    16:00 -6°C° 0 mm 3 mps 734 mmHg 59%
    17:00 -8°C° 0 mm 3 mps 735 mmHg 64%
    18:00 -9°C° 0 mm 3 mps 735 mmHg 70%
    19:00 -10°C° 0 mm 3 mps 735 mmHg 76%
    20:00 -10°C° 0 mm 3 mps 736 mmHg 76%
    21:00 -12°C° 0 mm 3 mps 736 mmHg 76%
    22:00 -12°C° 0 mm 3 mps 736 mmHg 76%
    23:00 -12°C° 0 mm 3 mps 735 mmHg 76%

    1 March, Thursday

    Time Temperature Precipitation Wind Pressure Humidity
    00:00 -12°C° 0 mm 3 mps 735 mmHg 76%
    01:00 -13°C° 0 mm 3 mps 735 mmHg 76%
    02:00 -13°C° 0 mm 3 mps 734 mmHg 76%
    03:00 -13°C° 0 mm 3 mps 734 mmHg 76%
    04:00 -13°C° 0 mm 3 mps 734 mmHg 77%
    05:00 -13°C° 0 mm 3 mps 733 mmHg 77%
    06:00 -13°C° 0 mm 3 mps 733 mmHg 77%
    07:00 -13°C° 0 mm 3 mps 733 mmHg 77%
    08:00 -10°C° 0 mm 3 mps 732 mmHg 72%
    09:00 -10°C° 0 mm 4 mps 732 mmHg 67%
    10:00 -8°C° 0 mm 4 mps 732 mmHg 62%
    11:00 -5°C° 0 mm 4 mps 731 mmHg 61%
    12:00 -4°C° 0 mm 4 mps 730 mmHg 59%
    13:00 -3°C° 0 mm 4 mps 730 mmHg 57%
    14:00 -3°C° 0 mm 4 mps 729 mmHg 59%
    15:00 -3°C° 0 mm 4 mps 729 mmHg 61%
    16:00 -3°C° 0 mm 4 mps 729 mmHg 63%
    17:00 -4°C° 0 mm 4 mps 729 mmHg 68%
    18:00 -5°C° 0 mm 4 mps 729 mmHg 73%
    19:00 -6°C° 0 mm 3 mps 729 mmHg 78%
    20:00 -6°C° 0 mm 3 mps 729 mmHg 79%
    21:00 -6°C° 0 mm 3 mps 729 mmHg 80%
    22:00 -7°C° 0 mm 3 mps 729 mmHg 81%
    23:00 -6°C° 0 mm 2 mps 729 mmHg 81%

    2 March, Friday

    Time Temperature Precipitation Wind Pressure Humidity
    00:00 -6°C° 0 mm 2 mps 729 mmHg 81%
    01:00 -6°C° 0 mm 2 mps 728 mmHg 81%
    02:00 -6°C° 0 mm 2 mps 728 mmHg 81%
    03:00 -6°C° 0 mm 2 mps 728 mmHg 81%
    04:00 -5°C° 0 mm 2 mps 727 mmHg 82%
    05:00 -5°C° 0 mm 2 mps 727 mmHg 82%
    06:00 -5°C° 0 mm 2 mps 727 mmHg 82%
    07:00 -5°C° 0 mm 2 mps 727 mmHg 82%
    08:00 -3°C° 0 mm 2 mps 727 mmHg 78%
    09:00 -2°C° 0 mm 2 mps 727 mmHg 74%
    10:00 +1°C° 0 mm 2 mps 727 mmHg 70%
    11:00 +2°C° 0 mm 2 mps 727 mmHg 69%
    12:00 +4°C° 0 mm 2 mps 726 mmHg 68%
    13:00 +5°C° 0 mm 2 mps 726 mmHg 67%
    14:00 +5°C° 0 mm 2 mps 726 mmHg 70%
    15:00 +5°C° 0 mm 2 mps 726 mmHg 72%
    16:00 +5°C° 0 mm 2 mps 726 mmHg 75%
    17:00 +3°C° 0 mm 2 mps 726 mmHg 79%
    18:00 +3°C° 0 mm 1 mps 727 mmHg 84%
    19:00 +2°C° 0 mm 1 mps 727 mmHg 89%
    20:00 +2°C° 0.2 mm 1 mps 727 mmHg 89%
    21:00 +2°C° 0.2 mm 1 mps 727 mmHg 90%
    22:00 +1°C° 0.2 mm 0 mps 728 mmHg 91%
    23:00 +2°C° 0.2 mm 1 mps 728 mmHg 91%
    Show more